Location: Robert Ferguson Observatory
(38.4385°N, 122.5078°W)
Time: 13:24:38
(UTC-07:00)

Daily predictions for brighter satellites

Satellite Brightness Start Highest point End
(mag) Time Altitude Azimuth Time Altitude Azimuth Time Altitude Azimuth
Meteor 1-14 Rocket 4.4 20:16:40 10° S 20:22:21 84° W 20:27:58 10° N
NOSS 3-1 (C) 3.9 20:17:47 10° SW 20:23:26 66° NW 20:29:48 10° NNE
Cosmos 1092 Rocket 4.2 20:18:02 10° S 20:24:10 81° W 20:30:23 10° N
Cosmos 2297 Rocket 3.5 20:19:05 10° NW 20:24:26 44° WSW 20:29:44 10° S
Cosmos 1140 Rocket 4.5 20:20:06 10° N 20:24:40 29° ENE 20:29:12 10° SE
ERBS 2.3 20:26:46 10° SW 20:30:14 87° SE 20:33:43 10° NE
Lacrosse 5 3.4 20:27:52 10° SSE 20:30:26 14° ESE 20:33:00 10° E
Meteor 1-18 Rocket 4.4 20:27:28 10° N 20:33:25 81° E 20:39:21 10° S
Cosmos 1378 Rocket 4.5 20:30:14 10° NNW 20:34:34 54° W 20:38:51 10° S
Cosmos 1782 Rocket 3.8 20:31:02 10° SSW 20:35:21 76° W 20:39:43 10° N
Resurs 01 Rocket 1.7 20:31:56 10° SSE 20:36:20 66° ENE 20:40:46 10° N
Cosmos 1939 Rocket 4.0 20:33:49 10° SE 20:37:10 26° ENE 20:40:30 10° NNE
Tiangong 1 2.3 20:35:45 10° WNW 20:38:17 31° N 20:40:48 10° ENE
Cosmos 921 Rocket 3.1 20:36:39 10° SSW 20:40:49 80° WNW 20:45:01 10° NNE
Cosmos 44 3.5 20:36:51 10° NNW 20:41:07 46° NE 20:45:21 11° SE
Cosmos 1553 Rocket 4.3 20:36:19 10° N 20:42:13 45° ENE 20:47:59 10° SSE
Okean 1 3.3 20:38:26 10° N 20:42:23 65° E 20:46:20 10° SSE
Cosmos 1536 4.2 20:42:20 10° SE 20:45:23 20° E 20:48:25 10° NE
Cosmos 1441 Rocket 3.6 20:42:13 10° NNW 20:45:56 64° W 20:49:37 10° S
Cosmos 2322 Rocket 2.6 20:42:23 10° S 20:47:37 39° ESE 20:52:52 10° NE
Lacrosse 5 rocket 1.5 20:45:00 10° NNW 20:48:34 48° NE 20:51:33 15° ESE
Cosmos 2263 Rocket 3.5 20:45:21 10° N 20:49:55 24° NE 20:53:39 13° ESE
Cosmos 2151 Rocket 3.8 20:47:10 10° SSE 20:51:23 49° E 20:55:38 10° NNE
Helios 1B rocket 3.6 20:48:11 10° NE 20:51:27 23° E 20:54:24 11° SE
Envisat 3.1 20:46:34 10° SSE 20:51:33 62° ENE 20:56:35 10° N
Cosmos 1975 Rocket 3.6 20:48:46 10° NNW 20:53:11 64° W 20:57:34 10° S
GPS 2-05 Rocket1 3.0 20:53:47 10° WSW 20:57:03 49° S 20:59:06 19° ESE
SL-16 R/B 2.4 20:52:12 10° S 20:57:36 48° ESE 21:03:01 10° NE
SWAS 4.5 21:00:52 10° NNW 21:05:09 84° WSW 21:08:56 13° SSE
Cosmos 1633 3.6 21:02:16 10° SSW 21:05:46 49° W 21:09:18 10° N
ATLAS 3B R/B 4.2 21:01:44 10° N 21:06:38 20° NE 21:11:07 11° E
YAOGAN 6 3.1 21:06:28 21° SE 21:08:25 40° ENE 21:11:45 10° N
USA 186 2.6 21:05:20 10° S 21:08:35 53° W 21:11:54 10° NNW
NOSS 2-3 (D) 4.0 21:06:50 10° S 21:11:13 47° ESE 21:16:10 10° NE
CZ-4C R/B 4.3 21:07:09 10° NW 21:13:48 36° WSW 21:20:55 10° S
Cosmos 1536 Rocket 3.4 21:13:08 10° N 21:17:28 69° E 21:20:38 18° SSE
SJ-11-01 4.2 21:15:38 14° SSE 21:19:43 81° ENE 21:24:24 10° N
Cosmos 1655 Rocket 4.5 21:14:48 10° SSW 21:21:00 64° W 21:27:18 10° N
Cosmos 2360 Rocket 2.9 21:19:31 19° SSE 21:22:20 29° ESE 21:27:07 10° NE
BREEZE-M DEB (TANK) 3.8 21:19:03 10° WNW 21:22:44 75° SW 21:32:22 20° SE
Cosmos 1980 Rocket 3.9 21:18:22 10° SW 21:23:26 35° WNW 21:28:32 10° N
Meteor 1-5 Rocket 4.3 21:19:27 12° SSE 21:24:06 47° E 21:29:09 10° NNE
Cosmos 1452 Rocket 4.4 21:19:09 10° SW 21:24:17 52° WNW 21:29:27 10° N
Helios 1A 3.0 21:25:07 25° SSE 21:27:27 67° ENE 21:31:41 10° N
Meteor 1-13 Rocket 4.4 21:22:05 10° N 21:28:05 85° W 21:33:49 11° S
Cosmos 1420 Rocket 4.3 21:23:13 10° SSW 21:28:22 69° WNW 21:33:34 10° NNE
Cosmos 1850 Rocket 4.1 21:23:22 10° NNW 21:28:40 61° ENE 21:31:25 28° SE
Meteor 2-4 Rocket 3.6 21:29:01 10° N 21:34:35 78° E 21:38:26 21° SSE
Cosmos 44 Rocket 4.0 21:30:58 10° NW 21:35:31 47° WSW 21:38:43 19° S
ATLAS 2AS CENTAUR R/B 3.0 21:29:50 10° SSW 21:37:17 63° ESE 21:45:14 10° NE
NOAA 11 4.3 21:37:35 30° SE 21:40:15 60° ENE 21:45:40 10° N
Atlas Centaur 2 3.2 21:33:38 10° WSW 21:41:06 44° S 21:43:52 31° SE
Spot 1 4.4 21:38:26 27° SSE 21:41:21 80° ENE 21:46:28 10° N
NOSS 2-3 (E) 4.0 21:43:38 10° SW 21:48:15 75° NW 21:53:36 10° NNE
SeaSat 1 4.4 21:52:01 10° N 21:56:16 30° NW 22:00:32 10° WSW
Cosmos 883 Rocket 4.4 21:51:00 10° N 21:57:10 88° E 22:00:26 30° S
Delta 2 Rocket 4.5 21:53:09 10° SW 21:56:02 32° SSW 21:56:02 32° SSW
DELTA 2 R/B (1) 4.0 21:52:06 10° W 21:57:29 48° SSW 21:58:51 40° SSE
SAR-Lupe-4 3.5 22:01:07 84° NW 22:01:07 84° NW 22:04:38 10° NNW
SPOT 5 3.1 22:05:07 49° E 22:05:24 50° ENE 22:10:00 10° N
Cosmos 1244 Rocket 4.5 22:04:17 44° SE 22:05:58 58° E 22:11:58 10° NNE
Meteor 1-29 3.9 22:04:10 10° N 22:07:27 45° WNW 22:08:15 37° WSW
MetOp-A 4.0 22:08:43 49° SSE 22:10:14 90° NE 22:15:37 10° NNW
Lacrosse 5 1.8 22:07:41 10° SW 22:12:46 82° NW 22:17:52 10° NE
Tiangong 1 3.4 22:11:20 10° WNW 22:12:33 22° NW 22:12:33 22° NW
Okean 1 Rocket 3.9 22:12:47 24° SW 22:15:06 48° W 22:19:21 10° N
Okean 1-7 Rocket 3.5 22:15:00 10° N 22:19:30 82° W 22:19:36 81° SW
YAOGAN 11 4.5 22:20:13 53° NE 22:20:13 53° NE 22:23:52 10° N
H-2A R/B 2.0 22:22:12 61° ENE 22:22:12 61° ENE 22:27:07 10° N
Lacrosse 5 rocket 3.5 22:25:08 10° W 22:27:15 16° WSW 22:27:15 16° WSW
ERS-1 Rocket 3.5 22:26:16 42° SW 22:27:30 53° W 22:32:25 10° NNW
ARGOS 3.1 22:27:30 63° SSW 22:28:20 77° WSW 22:33:43 10° NNW
Cosmos 2237 4.1 22:30:13 69° E 22:30:13 69° E 22:35:36 10° NNE
Cosmos 2278 Rocket 4.2 22:28:04 10° NNE 22:31:04 14° NE 22:31:25 14° NE
Cosmos 2315 Rocket 4.2 22:25:06 10° NNW 22:31:17 67° W 22:33:27 42° SSW
Cosmos 2322 Rocket 4.1 22:26:51 10° WSW 22:31:43 29° WNW 22:36:37 10° N
Cosmos 1025 Rocket 3.6 22:29:08 10° NNW 22:33:10 50° W 22:33:10 50° W
Cosmos 2263 Rocket 2.9 22:28:37 10° NW 22:34:04 48° WSW 22:35:21 41° SW
Cosmos 1607 4.1 22:29:31 10° NW 22:35:58 71° WSW 22:37:06 58° S
USA 238 DEB 3.9 22:29:04 10° NNW 22:36:04 59° NE 22:37:17 52° E
USA 238 3.9 22:29:09 10° NNW 22:36:10 58° NE 22:37:23 52° E
SL-16 R/B 4.4 22:37:25 10° WSW 22:41:55 24° NW 22:46:28 10° N
USA 245 4.3 22:42:06 60° WSW 22:42:22 61° WSW 22:47:02 10° NNW
Cosmos 1844 Rocket 3.4 22:37:11 10° N 22:42:07 41° NE 22:42:07 41° NE
H-2A R/B 4.3 22:47:26 17° NNE 22:47:26 17° NNE 22:48:51 10° NNE
Cosmos 2322 4.1 22:47:41 37° SW 22:49:49 61° WNW 22:55:27 10° NNE
Cosmos 1302 Rocket 4.4 22:53:16 59° N 22:53:16 59° N 22:57:34 10° NNE
Cosmos 2219 Rocket 3.8 22:56:04 23° NE 22:56:04 23° NE 22:58:13 10° NE
Cosmos 1486 Rocket 4.4 22:48:13 10° NNW 22:52:29 56° NNE 22:52:29 56° NNE
COSMOS 2428 3.2 22:58:58 54° NNE 22:58:58 54° NNE 23:03:20 10° NNE
ATLAS 3B R/B 2.4 22:51:32 10° NNW 22:58:15 90° W 22:58:22 88° SSE
Cosmos 1745 Rocket 3.9 23:00:14 74° NNE 23:00:14 74° NNE 23:05:50 10° N
Nimbus 7 Rocket 4.4 22:54:51 10° N 23:00:42 73° WNW 23:01:03 71° WSW
BREEZE M DEB (TANK) 4.2 22:55:32 10° WSW 22:59:26 29° W 22:59:26 29° W
Terra 2.9 23:03:30 39° N 23:03:30 39° N 23:06:33 10° N
Cosmos 2360 Rocket 3.5 23:01:02 10° SW 23:06:09 36° WNW 23:11:20 10° N
Cosmos 2333 Rocket 3.9 23:14:46 22° NE 23:14:46 22° NE 23:16:49 10° NNE
Cosmos 1844 4.4 23:06:05 10° NNW 23:10:28 46° NNE 23:10:28 46° NNE
ATLAS 2AS CENTAUR R/B 4.5 23:21:53 10° WSW 23:28:50 34° NW 23:36:05 10° NNE
Atlas Centaur 2 4.4 23:23:57 10° WSW 23:26:30 19° WSW 23:26:30 19° WSW
Cosmos 2237 Rocket 4.1 23:38:56 20° NE 23:38:56 20° NE 23:40:40 10° NNE
CENTAUR R/B 4.1 23:43:24 10° NNW 23:50:31 36° NE 23:51:45 34° ENE
